| time (UTC) | temp F | wind direction | speed knots | gust knots | rain 1hr in | rain 24hr in | rain mn in | humidity % | barometer mb |
| 20260505173028 | 0 | 217 | 9.6 | 13.0 | 0.00 | 0.00 | 0.00 | 1006.5 | |
| 20260505172757 | 0 | 10 | 8.7 | 11.3 | 0.00 | 0.00 | 0.00 | 1006.5 | |
| 20260505172018 | 0 | 219 | 8.7 | 13.0 | 0.00 | 0.00 | 0.00 | 1006.5 | |
| 20260505171747 | 0 | 198 | 9.6 | 13.0 | 0.00 | 0.00 | 0.00 | 1006.5 | |
| 20260505171013 | 0 | 10 | 9.6 | 13.0 | 0.00 | 0.00 | 0.00 | 1006.5 | |
| 20260505170742 | 0 | 10 | 9.6 | 13.0 | 0.00 | 0.00 | 0.00 | 1006.6 | |
| 20260505170011 | 0 | 10 | 10.4 | 13.0 | 0.00 | 0.00 | 0.00 | 1006.6 | |
| 20260505165505 | 0 | 10 | 9.6 | 13.0 | 0.00 | 0.00 | 0.00 | 1006.7 | |
| 20260505165002 | 0 | 194 | 9.6 | 13.0 | 0.00 | 0.00 | 0.00 | 1006.6 | |
| 20260505164726 | 0 | 203 | 8.7 | 13.0 | 0.00 | 0.00 | 0.00 | 1006.6 | |
| 20260505163950 | 0 | 10 | 8.7 | 13.0 | 0.00 | 0.00 | 0.00 | 1006.6 | |
| 20260505163443 | 0 | 193 | 9.6 | 13.9 | 0.00 | 0.00 | 0.00 | 1006.6 | |
| 20260505162936 | 0 | 221 | 9.6 | 13.9 | 0.00 | 0.00 | 0.00 | 1006.5 | |
| 20260505162426 | 0 | 10 | 8.7 | 12.2 | 0.00 | 0.00 | 0.00 | 1006.5 | |
| 20260505161920 | 0 | 10 | 8.7 | 12.2 | 0.00 | 0.00 | 0.00 | 1006.5 | |
| 20260505161416 | 0 | 202 | 8.7 | 13.0 | 0.00 | 0.00 | 0.00 | 1006.5 | |
| 20260505161137 | 0 | 10 | 8.7 | 13.0 | 0.00 | 0.00 | 0.00 | 1006.5 | |
| 20260505160358 | 0 | 10 | 8.7 | 13.0 | 0.00 | 0.00 | 0.00 | 1006.5 | |
| 20260505153314 | 0 | 210 | 8.7 | 13.0 | 0.00 | 0.00 | 0.00 | 1006.5 | |
| 20260505152804 | 0 | 198 | 8.7 | 11.3 | 0.00 | 0.00 | 0.00 | 1006.4 | |
| 20260505151744 | 0 | 215 | 7.8 | 11.3 | 0.00 | 0.00 | 0.00 | 1006.4 | |
| 20260505151239 | 0 | 201 | 8.7 | 11.3 | 0.00 | 0.00 | 0.00 | 1006.4 | |
| 20260505150729 | 0 | 10 | 7.8 | 11.3 | 0.00 | 0.00 | 0.00 | 1006.4 | |
| 20260505150220 | 0 | 181 | 7.8 | 12.2 | 0.00 | 0.00 | 0.00 | 1006.4 | |
| 20260505140527 | 0 | 10 | 7.8 | 11.3 | 0.00 | 0.00 | 0.00 | 1006.3 | |
| 20260505124755 | 0 | 10 | 7.0 | 10.4 | 0.00 | 0.00 | 0.00 | 1005.8 | |
| 20260505124245 | 0 | 202 | 6.1 | 9.6 | 0.00 | 0.00 | 0.00 | 1005.8 | |
| 20260505124004 | 0 | 202 | 6.1 | 9.6 | 0.00 | 0.00 | 0.00 | 1005.8 | |
| 20260505123224 | 0 | 10 | 7.0 | 10.4 | 0.00 | 0.00 | 0.00 | 1005.7 | |
| 20260505122714 | 0 | 219 | 7.0 | 10.4 | 0.00 | 0.00 | 0.00 | 1005.7 | |
| 20260505122207 | 0 | 10 | 6.1 | 9.6 | 0.00 | 0.00 | 0.00 | 1005.7 | |
| 20260505121657 | 0 | 10 | 5.2 | 7.8 | 0.00 | 0.00 | 0.00 | 1005.7 | |
| 20260505121157 | 0 | 10 | 5.2 | 8.7 | 0.00 | 0.00 | 0.00 | 1005.7 | |
| 20260505120918 | 0 | 10 | 4.3 | 8.7 | 0.00 | 0.00 | 0.00 | 1005.7 | |
| 20260505120140 | 0 | 10 | 5.2 | 8.7 | 0.00 | 0.00 | 0.00 | 1005.6 | |
| 20260505115630 | 0 | 10 | 5.2 | 8.7 | 0.00 | 0.00 | 0.00 | 1005.6 | |
| 20260505115119 | 0 | 10 | 5.2 | 7.8 | 0.00 | 0.00 | 0.00 | 1005.5 | |
| 20260505114609 | 0 | 10 | 4.3 | 7.8 | 0.00 | 0.00 | 0.00 | 1005.5 | |
| 20260505114331 | 0 | 10 | 4.3 | 7.8 | 0.00 | 0.00 | 0.00 | 1005.5 | |
| 20260505113549 | 0 | 10 | 4.3 | 7.8 | 0.00 | 0.00 | 0.00 | 1005.5 | |
| 20260505113040 | 0 | 10 | 3.5 | 7.8 | 0.00 | 0.00 | 0.00 | 1005.5 | |
| 20260505112801 | 0 | 186 | 3.5 | 5.2 | 0.00 | 0.00 | 0.00 | 1005.7 | |
| 20260505112251 | 0 | 10 | 3.5 | 7.0 | 0.00 | 0.00 | 0.00 | 1005.6 | |
| 20260505111507 | 0 | 10 | 3.5 | 7.0 | 0.00 | 0.00 | 0.00 | 1005.6 | |
| 20260505110958 | 0 | 10 | 3.5 | 5.2 | 0.00 | 0.00 | 0.00 | 1005.6 | |
| 20260505110447 | 0 | 184 | 3.5 | 5.2 | 0.00 | 0.00 | 0.00 | 1005.6 | |
| 20260505101811 | 0 | 10 | 1.7 | 4.3 | 0.00 | 0.00 | 0.00 | 1005.5 | |
| 20260505100744 | 0 | 194 | 2.6 | 4.3 | 0.00 | 0.00 | 0.00 | 1005.7 | |
| 20260505100233 | 0 | 184 | 2.6 | 5.2 | 0.00 | 0.00 | 0.00 | 1005.7 | |
| 20260505095721 | 0 | 192 | 1.7 | 4.3 | 0.00 | 0.00 | 0.00 | 1005.8 | |
| 20260505095209 | 0 | 190 | 2.6 | 4.3 | 0.00 | 0.00 | 0.00 | 1005.8 | |
| 20260505094931 | 0 | 10 | 2.6 | 4.3 | 0.00 | 0.00 | 0.00 | 1005.7 | |
| 20260505094148 | 0 | 172 | 2.6 | 4.3 | 0.00 | 0.00 | 0.00 | 1005.7 | |
| 20260505093916 | 0 | 190 | 2.6 | 5.2 | 0.00 | 0.00 | 0.00 | 1005.8 | |
| 20260505093403 | 0 | 10 | 1.7 | 5.2 | 0.00 | 0.00 | 0.00 | 1005.8 | |
| 20260505092621 | 0 | 10 | 0.9 | 4.3 | 0.00 | 0.00 | 0.00 | 1005.8 | |
| 20260505092116 | 0 | 10 | 0.9 | 3.5 | 0.00 | 0.00 | 0.00 | 1005.8 | |
| 20260505091613 | 0 | 189 | 1.7 | 4.3 | 0.00 | 0.00 | 0.00 | 1005.9 | |
| 20260505091104 | 0 | 10 | 2.6 | 4.3 | 0.00 | 0.00 | 0.00 | 1005.8 | |
| 20260505090553 | 0 | 194 | 2.6 | 5.2 | 0.00 | 0.00 | 0.00 | 1005.8 | |
| 20260505090316 | 0 | 195 | 2.6 | 5.2 | 0.00 | 0.00 | 0.00 | 1005.8 | |
| 20260505085807 | 0 | 200 | 2.6 | 7.0 | 0.00 | 0.00 | 0.00 | 1005.8 | |
| 20260505085300 | 0 | 194 | 3.5 | 7.0 | 0.00 | 0.00 | 0.00 | 1005.8 | |
| 20260505084527 | 0 | 204 | 4.3 | 7.0 | 0.00 | 0.00 | 0.00 | 1005.7 | |
| 20260505084018 | 0 | 10 | 4.3 | 7.8 | 0.00 | 0.00 | 0.00 | 1005.7 | |
| 20260505083740 | 0 | 10 | 4.3 | 8.7 | 0.00 | 0.00 | 0.00 | 1005.7 | |
| 20260505083001 | 0 | 10 | 4.3 | 7.8 | 0.00 | 0.00 | 0.00 | 1005.7 | |
| 20260505082455 | 0 | 10 | 4.3 | 7.8 | 0.00 | 0.00 | 0.00 | 1005.9 | |
| 20260505081949 | 0 | 10 | 4.3 | 7.8 | 0.00 | 0.00 | 0.00 | 1006.0 | |
| 20260505081440 | 0 | 185 | 5.2 | 8.7 | 0.00 | 0.00 | 0.00 | 1006.0 | |
| 20260505080936 | 0 | 10 | 4.3 | 8.7 | 0.00 | 0.00 | 0.00 | 1006.1 | |
| 20260505080702 | 0 | 10 | 4.3 | 7.8 | 0.00 | 0.00 | 0.00 | 1006.2 | |
| 20260505075923 | 0 | 10 | 4.3 | 7.8 | 0.00 | 0.00 | 0.00 | 1006.3 | |
| 20260505075423 | 0 | 10 | 5.2 | 7.8 | 0.00 | 0.00 | 0.00 | 1006.3 | |
| 20260505075148 | 0 | 10 | 5.2 | 8.7 | 0.00 | 0.00 | 0.00 | 1006.3 | |
| 20260505074411 | 0 | 10 | 5.2 | 8.7 | 0.00 | 0.00 | 0.00 | 1006.5 | |
| 20260505073903 | 0 | 194 | 4.3 | 7.0 | 0.00 | 0.00 | 0.00 | 1006.6 | |
| 20260505073402 | 0 | 10 | 4.3 | 7.8 | 0.00 | 0.00 | 0.00 | 1006.7 | |
| 20260505072901 | 0 | 10 | 5.2 | 8.7 | 0.00 | 0.00 | 0.00 | 1006.7 | |
| 20260505072629 | 0 | 10 | 5.2 | 8.7 | 0.00 | 0.00 | 0.00 | 1006.7 | |
| 20260505072117 | 0 | 217 | 4.3 | 7.8 | 0.00 | 0.00 | 0.00 | 1006.7 | |
| 20260505071339 | 0 | 205 | 4.3 | 8.7 | 0.00 | 0.00 | 0.00 | 1006.8 | |
| 20260505070320 | 0 | 210 | 4.3 | 7.0 | 0.00 | 0.00 | 0.00 | 1007.0 | |
| 20260505065817 | 0 | 194 | 3.5 | 7.0 | 0.00 | 0.00 | 0.00 | 1007.1 | |
| 20260505065316 | 0 | 191 | 3.5 | 6.1 | 0.00 | 0.00 | 0.00 | 1007.2 | |
| 20260505064816 | 0 | 204 | 3.5 | 7.0 | 0.00 | 0.00 | 0.00 | 1007.2 | |
| 20260505064315 | 0 | 10 | 3.5 | 7.0 | 0.00 | 0.00 | 0.00 | 1007.3 | |
| 20260505063809 | 0 | 10 | 3.5 | 7.0 | 0.00 | 0.00 | 0.00 | 1007.4 | |
| 20260505063255 | 0 | 10 | 3.5 | 7.0 | 0.00 | 0.00 | 0.00 | 1007.4 | |
| 20260505062756 | 0 | 10 | 4.3 | 7.8 | 0.00 | 0.00 | 0.00 | 1007.5 | |
| 20260505062246 | 0 | 199 | 4.3 | 7.8 | 0.00 | 0.00 | 0.00 | 1007.4 | |
| 20260505061737 | 0 | 10 | 4.3 | 7.0 | 0.00 | 0.00 | 0.00 | 1007.5 | |
| 20260505061231 | 0 | 204 | 3.5 | 7.8 | 0.00 | 0.00 | 0.00 | 1007.5 | |
| 20260505060726 | 0 | 196 | 3.5 | 7.8 | 0.00 | 0.00 | 0.00 | 1007.6 | |
| 20260505060223 | 0 | 10 | 3.5 | 5.2 | 0.00 | 0.00 | 0.00 | 1007.6 | |
| 20260505055720 | 0 | 190 | 3.5 | 5.2 | 0.00 | 0.00 | 0.00 | 1007.7 | |
| 20260505055211 | 0 | 200 | 4.3 | 7.0 | 0.00 | 0.00 | 0.00 | 1007.7 | |
| 20260505054933 | 0 | 213 | 4.3 | 7.0 | 0.00 | 0.00 | 0.00 | 1007.6 | |
| 20260505054154 | 0 | 208 | 4.3 | 7.0 | 0.00 | 0.00 | 0.00 | 1007.7 | |
| 20260505053917 | 0 | 195 | 4.3 | 7.8 | 0.00 | 0.00 | 0.00 | 1007.8 | |
| 20260505053134 | 0 | 10 | 4.3 | 8.7 | 0.00 | 0.00 | 0.00 | 1007.9 | |
| 20260505052626 | 0 | 210 | 5.2 | 8.7 | 0.00 | 0.00 | 0.00 | 1008.0 | |
| 20260505052117 | 0 | 203 | 3.5 | 7.8 | 0.00 | 0.00 | 0.00 | 1008.1 | |
| 20260505051606 | 0 | 10 | 0.9 | 6.1 | 0.00 | 0.00 | 0.00 | 1008.0 | |
| 20260505050546 | 0 | 10 | 0.0 | 3.5 | 0.00 | 0.00 | 0.00 | 1007.9 | |
| 20260505050317 | 0 | 213 | 0.0 | 3.5 | 0.00 | 0.00 | 0.00 | 1007.9 | |
| 20260505041418 | 0 | 10 | 7.0 | 9.6 | 0.00 | 0.00 | 0.00 | 1008.0 | |
| 20260505040906 | 0 | 194 | 7.0 | 9.6 | 0.00 | 0.00 | 0.00 | 1008.0 | |
| 20260505040355 | 0 | 10 | 6.1 | 9.6 | 0.00 | 0.00 | 0.00 | 1008.0 | |
| 20260505035845 | 0 | 10 | 5.2 | 9.6 | 0.00 | 0.00 | 0.00 | 1008.1 | |
| 20260505035336 | 0 | 10 | 5.2 | 8.7 | 0.00 | 0.00 | 0.00 | 1008.1 | |
| 20260505034825 | 0 | 10 | 5.2 | 8.7 | 0.00 | 0.00 | 0.00 | 1008.1 | |
| 20260505034315 | 0 | 10 | 5.2 | 8.7 | 0.00 | 0.00 | 0.00 | 1008.2 | |
| 20260505033805 | 0 | 10 | 5.2 | 8.7 | 0.00 | 0.00 | 0.00 | 1008.2 | |
| 20260505033300 | 0 | 10 | 5.2 | 8.7 | 0.00 | 0.00 | 0.00 | 1008.2 | |
| 20260505032749 | 0 | 10 | 6.1 | 8.7 | 0.00 | 0.00 | 0.00 | 1008.0 | |
| 20260505032240 | 0 | 10 | 5.2 | 8.7 | 0.00 | 0.00 | 0.00 | 1008.2 | |
| 20260505031727 | 0 | 10 | 5.2 | 8.7 | 0.00 | 0.00 | 0.00 | 1008.1 | |
| 20260505031217 | 0 | 10 | 6.1 | 8.7 | 0.00 | 0.00 | 0.00 | 1007.9 | |
| 20260505030707 | 0 | 10 | 6.1 | 8.7 | 0.00 | 0.00 | 0.00 | 1008.0 | |
| 20260505030158 | 0 | 10 | 5.2 | 8.7 | 0.00 | 0.00 | 0.00 | 1008.0 | |
| 20260505025647 | 0 | 10 | 5.2 | 8.7 | 0.00 | 0.00 | 0.00 | 1008.0 | |
| 20260505025136 | 0 | 10 | 6.1 | 9.6 | 0.00 | 0.00 | 0.00 | 1008.0 | |
| 20260505024626 | 0 | 10 | 6.1 | 9.6 | 0.00 | 0.00 | 0.00 | 1008.2 | |
| 20260505024107 | 0 | 10 | 4.3 | 7.8 | 0.00 | 0.00 | 0.00 | 1008.3 | |
| 20260505023549 | 0 | 10 | 4.3 | 7.8 | 0.00 | 0.00 | 0.00 | 1008.1 | |
| 20260505023040 | 0 | 10 | 5.2 | 8.7 | 0.00 | 0.00 | 0.00 | 1008.1 | |
| 20260505022529 | 0 | 10 | 5.2 | 8.7 | 0.00 | 0.00 | 0.00 | 1008.1 | |
| 20260505022019 | 0 | 10 | 4.3 | 8.7 | 0.00 | 0.00 | 0.00 | 1008.1 | |
| 20260505021509 | 0 | 10 | 4.3 | 7.8 | 0.00 | 0.00 | 0.00 | 1008.2 | |
| 20260505020957 | 0 | 10 | 4.3 | 7.8 | 0.00 | 0.00 | 0.00 | 1008.0 | |
| 20260505020439 | 0 | 10 | 4.3 | 7.8 | 0.00 | 0.00 | 0.00 | 1008.0 | |
| 20260505015930 | 0 | 10 | 5.2 | 7.8 | 0.00 | 0.00 | 0.00 | 1007.9 | |
| 20260505015420 | 0 | 10 | 5.2 | 8.7 | 0.00 | 0.00 | 0.00 | 1007.9 | |
| 20260505015139 | 0 | 10 | 3.5 | 8.7 | 0.00 | 0.00 | 0.00 | 1007.8 | |
| 20260505014358 | 0 | 10 | 2.6 | 7.8 | 0.00 | 0.00 | 0.00 | 1007.8 | |
| 20260505013852 | 0 | 10 | 4.3 | 8.7 | 0.00 | 0.00 | 0.00 | 1007.7 | |
| 20260505013341 | 0 | 10 | 4.3 | 8.7 | 0.00 | 0.00 | 0.00 | 1007.7 | |
| 20260505012842 | 0 | 10 | 4.3 | 8.7 | 0.00 | 0.00 | 0.00 | 1007.7 | |
| 20260505012340 | 0 | 10 | 4.3 | 8.7 | 0.00 | 0.00 | 0.00 | 1007.7 | |
| 20260505011841 | 0 | 10 | 6.1 | 9.6 | 0.00 | 0.00 | 0.00 | 1007.8 | |
| 20260505011341 | 0 | 10 | 7.8 | 11.3 | 0.00 | 0.00 | 0.00 | 1007.7 | |
| 20260505010832 | 0 | 10 | 7.8 | 11.3 | 0.00 | 0.00 | 0.00 | 1007.6 | |
| 20260505010322 | 0 | 10 | 7.0 | 10.4 | 0.00 | 0.00 | 0.00 | 1007.5 | |
| 20260505010041 | 0 | 10 | 7.0 | 11.3 | 0.00 | 0.00 | 0.00 | 1007.5 | |
| 20260505005258 | 0 | 10 | 8.7 | 11.3 | 0.00 | 0.00 | 0.00 | 1007.6 | |
| 20260505004749 | 0 | 10 | 9.6 | 13.0 | 0.00 | 0.00 | 0.00 | 1007.6 | |
| 20260505004237 | 0 | 10 | 9.6 | 13.0 | 0.00 | 0.00 | 0.00 | 1007.7 | |
| 20260505003727 | 0 | 10 | 8.7 | 13.0 | 0.00 | 0.00 | 0.00 | 1007.7 | |
| 20260505003217 | 0 | 10 | 8.7 | 13.0 | 0.00 | 0.00 | 0.00 | 1007.7 | |
| 20260505002157 | 0 | 10 | 8.7 | 12.2 | 0.00 | 0.00 | 0.00 | 1007.8 | |
| 20260505001919 | 0 | 169 | 8.7 | 12.2 | 0.00 | 0.00 | 0.00 | 1007.9 | |
| 20260505001137 | 0 | 10 | 8.7 | 12.2 | 0.00 | 0.00 | 0.00 | 1008.0 | |
| 20260505000627 | 0 | 10 | 8.7 | 12.2 | 0.00 | 0.00 | 0.00 | 1008.0 | |
| 20260504235607 | 0 | 10 | 9.6 | 13.0 | 0.00 | 0.00 | 0.00 | 1008.1 | |
| 20260504235057 | 0 | 10 | 9.6 | 13.0 | 0.00 | 0.00 | 0.00 | 1008.2 | |
| 20260504234544 | 0 | 10 | 9.6 | 13.0 | 0.00 | 0.00 | 0.00 | 1008.3 | |
| 20260504234033 | 0 | 10 | 9.6 | 13.0 | 0.00 | 0.00 | 0.00 | 1008.3 | |
| 20260504233753 | 0 | 10 | 9.6 | 13.9 | 0.00 | 0.00 | 0.00 | 1008.2 | |
| 20260504233013 | 0 | 144 | 10.4 | 13.9 | 0.00 | 0.00 | 0.00 | 1008.3 | |
| 20260504232724 | 0 | 10 | 10.4 | 13.0 | 0.00 | 0.00 | 0.00 | 1008.3 | |
| 20260504231943 | 0 | 10 | 9.6 | 12.2 | 0.00 | 0.00 | 0.00 | 1008.4 | |
| 20260504231433 | 0 | 160 | 9.6 | 13.9 | 0.00 | 0.00 | 0.00 | 1008.4 | |
| 20260504230925 | 0 | 10 | 10.4 | 13.9 | 0.00 | 0.00 | 0.00 | 1008.6 | |
| 20260504230647 | 0 | 10 | 9.6 | 13.9 | 0.00 | 0.00 | 0.00 | 1008.5 | |
| 20260504230140 | 0 | 10 | 9.6 | 13.9 | 0.00 | 0.00 | 0.00 | 1008.5 | |
| 20260504225630 | 0 | 10 | 10.4 | 13.9 | 0.00 | 0.00 | 0.00 | 1008.5 | |
| 20260504225121 | 0 | 10 | 10.4 | 13.9 | 0.00 | 0.00 | 0.00 | 1008.4 | |
| 20260504224602 | 0 | 10 | 9.6 | 13.9 | 0.00 | 0.00 | 0.00 | 1008.5 | |
| 20260504223819 | 0 | 171 | 9.6 | 13.9 | 0.00 | 0.00 | 0.00 | 1008.4 | |
| 20260504223546 | 0 | 158 | 10.4 | 14.8 | 0.00 | 0.00 | 0.00 | 1008.4 | |
| 20260504222803 | 0 | 10 | 10.4 | 14.8 | 0.00 | 0.00 | 0.00 | 1008.5 | |
| 20260504222255 | 0 | 138 | 11.3 | 13.0 | 0.00 | 0.00 | 0.00 | 1008.5 | |
| 20260504221747 | 0 | 150 | 11.3 | 13.0 | 0.00 | 0.00 | 0.00 | 1008.6 | |
| 20260504221243 | 0 | 146 | 11.3 | 13.9 | 0.00 | 0.00 | 0.00 | 1008.7 | |
| 20260504220729 | 0 | 10 | 10.4 | 13.9 | 0.00 | 0.00 | 0.00 | 1008.6 | |
| 20260504220221 | 0 | 10 | 10.4 | 13.0 | 0.00 | 0.00 | 0.00 | 1008.6 | |
| 20260504215717 | 0 | 10 | 10.4 | 13.0 | 0.00 | 0.00 | 0.00 | 1008.8 | |
| 20260504215213 | 0 | 10 | 11.3 | 13.0 | 0.00 | 0.00 | 0.00 | 1008.8 | |
| 20260504214709 | 0 | 140 | 10.4 | 13.0 | 0.00 | 0.00 | 0.00 | 1008.9 | |
| 20260504214203 | 0 | 10 | 9.6 | 13.9 | 0.00 | 0.00 | 0.00 | 1009.0 | |
| 20260504213659 | 0 | 10 | 9.6 | 12.2 | 0.00 | 0.00 | 0.00 | 1009.1 | |
| 20260504213152 | 0 | 163 | 10.4 | 12.2 | 0.00 | 0.00 | 0.00 | 1009.1 | |
| 20260504212651 | 0 | 10 | 10.4 | 12.2 | 0.00 | 0.00 | 0.00 | 1009.2 | |
| 20260504212148 | 0 | 10 | 9.6 | 12.2 | 0.00 | 0.00 | 0.00 | 1009.3 | |
| 20260504211645 | 0 | 10 | 10.4 | 12.2 | 0.00 | 0.00 | 0.00 | 1009.5 | |
| 20260504211414 | 0 | 10 | 10.4 | 13.0 | 0.00 | 0.00 | 0.00 | 1009.6 | |
| 20260504210907 | 0 | 10 | 10.4 | 13.0 | 0.00 | 0.00 | 0.00 | 1009.6 | |
| 20260504210133 | 0 | 10 | 9.6 | 13.0 | 0.00 | 0.00 | 0.00 | 1009.7 | |
| 20260504205628 | 0 | 10 | 10.4 | 13.0 | 0.00 | 0.00 | 0.00 | 1009.7 | |
| 20260504205353 | 0 | 10 | 10.4 | 13.0 | 0.00 | 0.00 | 0.00 | 1009.8 | |
| 20260504204615 | 0 | 10 | 10.4 | 13.0 | 0.00 | 0.00 | 0.00 | 1009.8 | |
| 20260504204112 | 0 | 10 | 10.4 | 13.0 | 0.00 | 0.00 | 0.00 | 1009.9 | |
| 20260504203557 | 0 | 10 | 10.4 | 13.0 | 0.00 | 0.00 | 0.00 | 1009.9 | |
| 20260504203054 | 0 | 10 | 9.6 | 13.0 | 0.00 | 0.00 | 0.00 | 1010.0 | |
| 20260504202546 | 0 | 10 | 10.4 | 13.0 | 0.00 | 0.00 | 0.00 | 1010.2 | |
| 20260504202040 | 0 | 10 | 10.4 | 13.0 | 0.00 | 0.00 | 0.00 | 1010.2 | |
| 20260504201032 | 0 | 10 | 10.4 | 13.0 | 0.00 | 0.00 | 0.00 | 1010.1 | |
| 20260504200754 | 0 | 152 | 10.4 | 13.0 | 0.00 | 0.00 | 0.00 | 1010.1 | |
| 20260504200016 | 0 | 10 | 10.4 | 12.2 | 0.00 | 0.00 | 0.00 | 1010.2 | |
| 20260504195514 | 0 | 10 | 10.4 | 13.9 | 0.00 | 0.00 | 0.00 | 1010.4 | |
| 20260504195008 | 0 | 160 | 10.4 | 13.9 | 0.00 | 0.00 | 0.00 | 1010.4 | |
| 20260504194502 | 0 | 10 | 9.6 | 13.0 | 0.00 | 0.00 | 0.00 | 1010.5 | |
| 20260504193958 | 0 | 10 | 9.6 | 13.0 | 0.00 | 0.00 | 0.00 | 1010.6 | |
| 20260504193450 | 0 | 145 | 9.6 | 12.2 | 0.00 | 0.00 | 0.00 | 1010.7 | |
| 20260504192948 | 0 | 10 | 9.6 | 13.0 | 0.00 | 0.00 | 0.00 | 1010.9 | |
| 20260504192438 | 0 | 10 | 9.6 | 13.0 | 0.00 | 0.00 | 0.00 | 1010.9 | |
| 20260504191930 | 0 | 10 | 9.6 | 12.2 | 0.00 | 0.00 | 0.00 | 1010.8 | |
| 20260504191422 | 0 | 10 | 9.6 | 13.9 | 0.00 | 0.00 | 0.00 | 1010.7 | |
| 20260504190408 | 0 | 10 | 10.4 | 13.9 | 0.00 | 0.00 | 0.00 | 1010.7 | |
| 20260504185901 | 0 | 142 | 10.4 | 13.9 | 0.00 | 0.00 | 0.00 | 1010.6 | |
| 20260504185350 | 0 | 10 | 10.4 | 13.0 | 0.00 | 0.00 | 0.00 | 1011.0 | |
| 20260504184840 | 0 | 10 | 10.4 | 13.0 | 0.00 | 0.00 | 0.00 | 1011.1 | |
| 20260504184329 | 0 | 10 | 10.4 | 13.9 | 0.00 | 0.00 | 0.00 | 1011.1 | |
| 20260504183818 | 0 | 10 | 9.6 | 13.9 | 0.00 | 0.00 | 0.00 | 1010.9 | |
| 20260504183308 | 0 | 145 | 9.6 | 12.2 | 0.00 | 0.00 | 0.00 | 1011.0 | |
| 20260504182758 | 0 | 10 | 10.4 | 12.2 | 0.00 | 0.00 | 0.00 | 1011.0 | |
| 20260504182246 | 0 | 10 | 9.6 | 13.0 | 0.00 | 0.00 | 0.00 | 1010.9 | |
| 20260504181737 | 0 | 153 | 9.6 | 12.2 | 0.00 | 0.00 | 0.00 | 1011.0 | |
| 20260504181227 | 0 | 10 | 9.6 | 12.2 | 0.00 | 0.00 | 0.00 | 1011.3 | |
| 20260504180716 | 0 | 10 | 9.6 | 12.2 | 0.00 | 0.00 | 0.00 | 1011.2 | |
| 20260504180157 | 0 | 10 | 9.6 | 13.0 | 0.00 | 0.00 | 0.00 | 1011.4 | |
| 20260504175646 | 0 | 10 | 9.6 | 13.0 | 0.00 | 0.00 | 0.00 | 1011.5 | |
| 20260504175136 | 0 | 154 | 9.6 | 12.2 | 0.00 | 0.00 | 0.00 | 1011.5 | |
| 20260504174626 | 0 | 157 | 9.6 | 12.2 | 0.00 | 0.00 | 0.00 | 1011.5 | |
| 20260504174349 | 0 | 10 | 9.6 | 12.2 | 0.00 | 0.00 | 0.00 | 1011.6 | |
| 20260504173558 | 0 | 10 | 10.4 | 13.9 | 0.00 | 0.00 | 0.00 | 1011.7 |